User: anonymous   Login
Location: ???????
(55.4362°N, 38.1183°E)
Time: 13:19:12
(UTC+00:00)
Language:

SL-14 R/B - Orbit

View from above orbital plane
View from above orbital plane
View from above satellite
View from above satellite

Ground track
Ground track

The orbit data is extracted from the following two-line orbital elements,

1 33505U 09003B   21262.90296268 -.00000162  00000-0 -11734-4 0  9994
2 33505  82.3912 135.4653 0024140 237.6169 122.2725 15.10104548695544
Epoch (UTC): 19 September 2021 21:40:15
Eccentricity: 0.0024140
inclination: 82.3912°
perigee height: 519 km
apogee height: 552 km
right ascension of ascending node: 135.4653°
argument of perigee: 237.6169°
revolutions per day: 15.10104548
mean anomaly at epoch: 122.2725°
orbit number at epoch: 69554

The dashed part of the orbit path shows where the satellite is in the earth's shadow,  

DLR